Location: Unspecified
(0.0000°N, 0.0000°E)
Time: 02:38:41
(UTC+02:00)

Orbus 21S - Visible Passes

Search period start: 25 July 2014 00:00
Search period end: 04 August 2014 00:00
Orbit: 317 x 33504 km, 24.1° (Epoch: 23 July)

Date Brightness Start Highest point End Pass type
(mag) Time Alt. Az. Time Alt. Az. Time Alt. Az.
25 Jul 8.1 00:00:00 47° NNW 04:16:58 82° NNW 08:50:41 10° SE visible
25 Jul 5.8 19:05:22 10° WNW 19:09:58 34° N 19:32:32 10° ENE visible
27 Jul 7.5 00:55:14 10° WNW 03:38:11 72° NW 10:02:02 10° SE visible
27 Jul 8.1 20:16:15 10° WNW 03:34:32 54° E 05:19:01 10° ESE visible
29 Jul 6.8 02:11:48 10° WNW 04:13:51 55° WNW 11:12:43 10° SE visible
29 Jul 8.1 21:27:24 10° NW 04:33:21 75° ESE 06:35:13 10° ESE visible
31 Jul 6.0 11:55:22 10° WSW 05:14:50 35° WNW 12:23:03 10° SSE visible
31 Jul 8.3 22:39:02 10° NW 04:17:36 90° NNW 07:48:26 10° SE visible
01 Aug 9.9 23:01:40 10° E 01:24:58 22° E 02:39:23 10° ESE visible
02 Aug 9.8 05:17:17 10° WNW 06:19:19 16° WNW 07:57:07 10° W visible
02 Aug 7.9 23:51:36 10° NW 03:20:07 80° NNW 09:00:06 10° SE visible
03 Aug 6.5 19:14:42 10° NW 19:20:59 31° N 20:06:12 10° ENE visible
